Regional Weather Roundup
Issued by NWS Green Bay, WI

Home | Current Version | Previous Version | Graphics & Text | Print | Product List | Glossary Off
Versions: 1 2 3 4 5 6 7 8 9 10 11 12 13 14 15 16 17 18 19 20 21 22 23 24 25 26 27 28 29 30 31 32 33 34 35 36 37 38 39 40 41 42 43 44 45 46 47 48 49 50

000
ASUS43 KGRB 271711
RWRGRB

NORTH-CENTRAL AND NORTHEAST WISCONSIN REGIONAL WEATHER ROUNDUP
NATIONAL WEATHER SERVICE GREEN BAY WI
1200 PM CDT THU APR 27 2017

WIZ005-009-010>012-018-019-271800-
NORTH CENTRAL WISCONSIN

CITY           SKY/WX    TMP DP  RH WIND       PRES   REMARKS
IRONWOOD       LGT SNOW  26  24  92 W10       29.45R VSB 3/4
MANITOWISH WTR SNOW      26  26 100 NW12      29.41R VSB 1/2
ARBOR VITAE    LGT SNOW  29  27  92 NW9       29.40R VSB 3/4
EAGLE RIVER    LGT SNOW  28  26  92 NW13      29.39R VSB 3/4
LAND O LAKES   SNOW      28  26  91 NW9G16    29.40R VSB 1/2
RHINELANDER    SNOW      30  28  92 NW8G17    29.40R VSB 1/2
PHILLIPS       SNOW      27  26  96 NW8       29.44R VSB 1/2
ANTIGO         LGT SNOW  32  32  99 NW9       29.39R
TOMAHAWK       LGT SNOW  29  26  89 W8G16     29.44R VSB 1
MERRILL        LGT SNOW  30  29  96 NW7       29.44R VSB 1
$$

WIZ013-073-271800-
NORTHEAST WISCONSIN

CITY           SKY/WX    TMP DP  RH WIND       PRES   REMARKS
IRON MOUNTAIN  LGT RAIN  35  30  82 NW14      29.32R
MARINETTE      LGT RAIN  39  37  93 VRB7      29.35R FOG
OCONTO         CLOUDY    40  38  90 W9        29.36R
$$

WIZ017-030-035>037-045-271800-
CENTRAL WISCONSIN

CITY           SKY/WX    TMP DP  RH WIND       PRES   REMARKS
MEDFORD        LGT SNOW  29  27  91 W8        29.45R
WAUSAU         SNOW      31  30  96 W14       29.43R VSB 1/2
MOSINEE        LGT SNOW  30  30 100 W13G22    29.45R VSB 3/4
MARSHFIELD     LGT SNOW  31  28  89 NW10      29.46R FOG
WISC RAPIDS    LGT SNOW  33  31  92 NW12      29.49R FOG
STEVENS POINT  MIX PCPN  31  30  97 W9G20     29.46R
WAUPACA        LGT SNOW  36  34  92 W16       29.46R
SHAWANO        LGT RAIN  36  34  92 W6        29.40R
CLINTONVILLE   LGT SNOW  34  32  93 SW9       29.42R
WAUTOMA        LGT SNOW  34  32  93 W13       29.49R FOG
$$

WIZ038-039-048-051-271800-
FOX VALLEY

CITY           SKY/WX    TMP DP  RH WIND       PRES   REMARKS
NWS GREEN BAY  LGT RAIN  41  39  93 W18G24    29.40R
APPLETON       FLURRIES  36  36 100 W17       29.41R
OSHKOSH        MIX PCPN  37  34  89 W14G23    29.45R
FOND DU LAC    LGT RAIN  38  34  85 W14G21    29.47R
$$

WIZ022-050-052-271800-
EAST CENTRAL WISCONSIN

CITY           SKY/WX    TMP DP  RH WIND       PRES   REMARKS
EPHRAIM        DRIZZLE   37  37 100 W7        29.33R
WASHINGTON ISL RAIN      36  36  98 N9        29.28R
STURGEON BAY   LGT RAIN  39  37  92 W14       29.36R
MANITOWOC      CLOUDY    42  38  85 W16G30    29.42R
SHEBOYGAN      LGT RAIN  42  38  85 W17G31    29.44R
$$

LMZ563-521-522-541>543-271800-
LAKESHORE

STATION/POSITION TIME  TEMP    WIND        PRES    VSBY  WAVE
                       AIR SEA DIR/SP/G                  HT/PER
                 (UTC) (F)     (DEG/KT/KT) (MB)    (MI)  (FT/S)
SHEBOYGAN LKSHOR 1700   43     250/ 20/ 26  997.1R
KEWAUNEE LKSHORE 1648   43     270/ 10/ 14  994.4R
NORTHPORT PIER   1630   37     320/ 16/ 18  992.2R
N MID LAKE BUOY  1650   45 37  180/ 14/ 19  992.1F         2/ 4
SISTER BAY LKSHO 1621   36     330/ 19/ 22   N/A
CHAMBERS ISLAND  1640   38     300/  7/ 12  992.6R
MENOMINEE LKSHOR 1648   39     270/ 10/ 14  992.8R
$$




USA.gov is the U.S. government's official web portal to all federal, state and local government web resources and services.